����������;��������(kWh)
2018-10-29 00:00;73,65
2018-10-29 00:15;73,9
2018-10-29 00:30;73,55
2018-10-29 00:45;75,8
2018-10-29 01:00;74,25
2018-10-29 01:15;73,4
2018-10-29 01:30;75,3
2018-10-29 01:45;73,4
2018-10-29 02:00;74,1
2018-10-29 02:15;73,15
2018-10-29 02:30;76,25
2018-10-29 02:45;74,65
2018-10-29 03:00;75,5
2018-10-29 03:15;75,05
2018-10-29 03:30;77,35
2018-10-29 03:45;75,15
2018-10-29 04:00;76,15
2018-10-29 04:15;75,75
2018-10-29 04:30;81
2018-10-29 04:45;83,9
2018-10-29 05:00;83,2
2018-10-29 05:15;82,55
2018-10-29 05:30;81,15
2018-10-29 05:45;82,85
2018-10-29 06:00;83,2
2018-10-29 06:15;84
2018-10-29 06:30;72,6
2018-10-29 06:45;71,45
2018-10-29 07:00;70,75
2018-10-29 07:15;74,65
2018-10-29 07:30;74,85
2018-10-29 07:45;80,1
2018-10-29 08:00;79,3
2018-10-29 08:15;81,05
2018-10-29 08:30;85,9
2018-10-29 08:45;87,2
2018-10-29 09:00;94,25
2018-10-29 09:15;97,65
2018-10-29 09:30;102,7
2018-10-29 09:45;108,45
2018-10-29 10:00;111,3
2018-10-29 10:15;114,1
2018-10-29 10:30;116,35
2018-10-29 10:45;122,15
2018-10-29 11:00;124,15
2018-10-29 11:15;122,75
2018-10-29 11:30;128,35
2018-10-29 11:45;129
2018-10-29 12:00;131,3
2018-10-29 12:15;133,2
2018-10-29 12:30;132,4
2018-10-29 12:45;133,2
2018-10-29 13:00;134,8
2018-10-29 13:15;137,7
2018-10-29 13:30;137,7
2018-10-29 13:45;135,15
2018-10-29 14:00;131
2018-10-29 14:15;134,4
2018-10-29 14:30;138,45
2018-10-29 14:45;134,1
2018-10-29 15:00;130,9
2018-10-29 15:15;127,5
2018-10-29 15:30;121,25
2018-10-29 15:45;119,7
2018-10-29 16:00;115,7
2018-10-29 16:15;114,9
2018-10-29 16:30;113,45
2018-10-29 16:45;111,4
2018-10-29 17:00;109,75
2018-10-29 17:15;106,2
2018-10-29 17:30;107,9
2018-10-29 17:45;110,5
2018-10-29 18:00;114,2
2018-10-29 18:15;111,8
2018-10-29 18:30;114,65
2018-10-29 18:45;111,1
2018-10-29 19:00;116,15
2018-10-29 19:15;112,7
2018-10-29 19:30;110,85
2018-10-29 19:45;110,25
2018-10-29 20:00;112,45
2018-10-29 20:15;107,5
2018-10-29 20:30;107,45
2018-10-29 20:45;105,05
2018-10-29 21:00;105,9
2018-10-29 21:15;101,45
2018-10-29 21:30;100,2
2018-10-29 21:45;95,7
2018-10-29 22:00;92,5
2018-10-29 22:15;90,35
2018-10-29 22:30;89,7
2018-10-29 22:45;83,15
2018-10-29 23:00;83,7
2018-10-29 23:15;80,85
2018-10-29 23:30;78,6
2018-10-29 23:45;82,2
2018-10-30 00:00;78,4
2018-10-30 00:15;80,5
2018-10-30 00:30;78,15
2018-10-30 00:45;78,35
2018-10-30 01:00;78,7
2018-10-30 01:15;78,75
2018-10-30 01:30;76,85
2018-10-30 01:45;79,5
2018-10-30 02:00;76,65
2018-10-30 02:15;77,95
2018-10-30 02:30;77,35
2018-10-30 02:45;80,6
2018-10-30 03:00;77,9
2018-10-30 03:15;81,7
2018-10-30 03:30;80,3
2018-10-30 03:45;81,35
2018-10-30 04:00;78,15
2018-10-30 04:15;79,25
2018-10-30 04:30;79,85
2018-10-30 04:45;81,95
2018-10-30 05:00;80,75
2018-10-30 05:15;79,6
2018-10-30 05:30;79,75
2018-10-30 05:45;77,7
2018-10-30 06:00;79
2018-10-30 06:15;77,7
2018-10-30 06:30;81,6
2018-10-30 06:45;76,5
2018-10-30 07:00;77,4
2018-10-30 07:15;76,4
2018-10-30 07:30;79,4
2018-10-30 07:45;83,5
2018-10-30 08:00;86,4
2018-10-30 08:15;94,4
2018-10-30 08:30;101,1
2018-10-30 08:45;104,65
2018-10-30 09:00;107,9
2018-10-30 09:15;112,55
2018-10-30 09:30;115,3
2018-10-30 09:45;120,75
2018-10-30 10:00;122,85
2018-10-30 10:15;117,4
2018-10-30 10:30;121,1
2018-10-30 10:45;120
2018-10-30 11:00;129,95
2018-10-30 11:15;130,05
2018-10-30 11:30;135,05
2018-10-30 11:45;135,35
2018-10-30 12:00;137,6
2018-10-30 12:15;134,95
2018-10-30 12:30;132,05
2018-10-30 12:45;132,5
2018-10-30 13:00;132,75
2018-10-30 13:15;135,35
2018-10-30 13:30;139
2018-10-30 13:45;135,3
2018-10-30 14:00;137,65
2018-10-30 14:15;134,4
2018-10-30 14:30;136,45
2018-10-30 14:45;131,05
2018-10-30 15:00;130,3
2018-10-30 15:15;128,05
2018-10-30 15:30;125,75
2018-10-30 15:45;121,85
2018-10-30 16:00;116,6
2018-10-30 16:15;116,8
2018-10-30 16:30;120,35
2018-10-30 16:45;119,85
2018-10-30 17:00;120,15
2018-10-30 17:15;119,05
2018-10-30 17:30;118,75
2018-10-30 17:45;123
2018-10-30 18:00;121,8
2018-10-30 18:15;118,2
2018-10-30 18:30;116,7
2018-10-30 18:45;113,55
2018-10-30 19:00;114,8
2018-10-30 19:15;115,3
2018-10-30 19:30;109,5
2018-10-30 19:45;110,15
2018-10-30 20:00;104,25
2018-10-30 20:15;108,85
2018-10-30 20:30;107,25
2018-10-30 20:45;108,9
2018-10-30 21:00;106,4
2018-10-30 21:15;105
2018-10-30 21:30;102,55
2018-10-30 21:45;99,65
2018-10-30 22:00;95,15
2018-10-30 22:15;88,9
2018-10-30 22:30;86,25
2018-10-30 22:45;88,35
2018-10-30 23:00;87,8
2018-10-30 23:15;87,05
2018-10-30 23:30;84,7
2018-10-30 23:45;88,45
2018-10-31 00:00;85,8
2018-10-31 00:15;86,7
2018-10-31 00:30;83,65
2018-10-31 00:45;84,75
2018-10-31 01:00;81,3
2018-10-31 01:15;82
2018-10-31 01:30;82,65
2018-10-31 01:45;81,6
2018-10-31 02:00;83,1
2018-10-31 02:15;81,85
2018-10-31 02:30;84,4
2018-10-31 02:45;82,2
2018-10-31 03:00;82,4
2018-10-31 03:15;83,6
2018-10-31 03:30;84,2
2018-10-31 03:45;84,3
2018-10-31 04:00;84,65
2018-10-31 04:15;84,2
2018-10-31 04:30;85,85
2018-10-31 04:45;82,4
2018-10-31 05:00;84,8
2018-10-31 05:15;82,75
2018-10-31 05:30;84,75
2018-10-31 05:45;82,95
2018-10-31 06:00;81,95
2018-10-31 06:15;82
2018-10-31 06:30;80,9
2018-10-31 06:45;81,3
2018-10-31 07:00;80,3
2018-10-31 07:15;82,8
2018-10-31 07:30;82,95
2018-10-31 07:45;89,25
2018-10-31 08:00;87,3
2018-10-31 08:15;89,5
2018-10-31 08:30;96,65
2018-10-31 08:45;100,35
2018-10-31 09:00;104,05
2018-10-31 09:15;114,95
2018-10-31 09:30;123,35
2018-10-31 09:45;125
2018-10-31 10:00;125,8
2018-10-31 10:15;131,5
2018-10-31 10:30;131,3
2018-10-31 10:45;134,8
2018-10-31 11:00;135,2
2018-10-31 11:15;132,45
2018-10-31 11:30;138,2
2018-10-31 11:45;139,5
2018-10-31 12:00;142,8
2018-10-31 12:15;140,7
2018-10-31 12:30;141,8
2018-10-31 12:45;141,25
2018-10-31 13:00;137,25
2018-10-31 13:15;141,1
2018-10-31 13:30;139,45
2018-10-31 13:45;134,9
2018-10-31 14:00;137,15
2018-10-31 14:15;136,95
2018-10-31 14:30;137,25
2018-10-31 14:45;137,95
2018-10-31 15:00;133,4
2018-10-31 15:15;130,35
2018-10-31 15:30;129,5
2018-10-31 15:45;124,4
2018-10-31 16:00;122,15
2018-10-31 16:15;119,4
2018-10-31 16:30;116,85
2018-10-31 16:45;117,7
2018-10-31 17:00;117,45
2018-10-31 17:15;114,6
2018-10-31 17:30;113,1
2018-10-31 17:45;117,8
2018-10-31 18:00;113,5
2018-10-31 18:15;115,1
2018-10-31 18:30;115,9
2018-10-31 18:45;118,05
2018-10-31 19:00;122,9
2018-10-31 19:15;119,35
2018-10-31 19:30;119,65
2018-10-31 19:45;114,45
2018-10-31 20:00;114,25
2018-10-31 20:15;108,95
2018-10-31 20:30;107,5
2018-10-31 20:45;112,65
2018-10-31 21:00;108,9
2018-10-31 21:15;102,85
2018-10-31 21:30;102
2018-10-31 21:45;97,7
2018-10-31 22:00;93,25
2018-10-31 22:15;94,75
2018-10-31 22:30;93,4
2018-10-31 22:45;96,2
2018-10-31 23:00;88,95
2018-10-31 23:15;85,6
2018-10-31 23:30;84,05
2018-10-31 23:45;88,6
2018-11-01 00:00;85,5
2018-11-01 00:15;84,45
2018-11-01 00:30;85,1
2018-11-01 00:45;84,45
2018-11-01 01:00;84
2018-11-01 01:15;84,5
2018-11-01 01:30;80,95
2018-11-01 01:45;82,25
2018-11-01 02:00;80,05
2018-11-01 02:15;83,55
2018-11-01 02:30;82,2
2018-11-01 02:45;83,3
2018-11-01 03:00;81,4
2018-11-01 03:15;84,05
2018-11-01 03:30;81,35
2018-11-01 03:45;82,55
2018-11-01 04:00;81,2
2018-11-01 04:15;82,95
2018-11-01 04:30;79,8
2018-11-01 04:45;82,55
2018-11-01 05:00;79,55
2018-11-01 05:15;80,6
2018-11-01 05:30;78,95
2018-11-01 05:45;80,55
2018-11-01 06:00;79
2018-11-01 06:15;81,75
2018-11-01 06:30;80,95
2018-11-01 06:45;77,65
2018-11-01 07:00;76,3
2018-11-01 07:15;79
2018-11-01 07:30;77,85
2018-11-01 07:45;83,85
2018-11-01 08:00;85,55
2018-11-01 08:15;93,3
2018-11-01 08:30;96,5
2018-11-01 08:45;99,6
2018-11-01 09:00;106,2
2018-11-01 09:15;108,7
2018-11-01 09:30;112,15
2018-11-01 09:45;114,5
2018-11-01 10:00;113,75
2018-11-01 10:15;123,6
2018-11-01 10:30;123,05
2018-11-01 10:45;125,8
2018-11-01 11:00;126,35
2018-11-01 11:15;131,15
2018-11-01 11:30;135
2018-11-01 11:45;135,5
2018-11-01 12:00;135,25
2018-11-01 12:15;137,45
2018-11-01 12:30;134,35
2018-11-01 12:45;140,8
2018-11-01 13:00;142,25
2018-11-01 13:15;146,75
2018-11-01 13:30;150,15
2018-11-01 13:45;143,15
2018-11-01 14:00;145,65
2018-11-01 14:15;146,7
2018-11-01 14:30;146,7
2018-11-01 14:45;139,85
2018-11-01 15:00;134,4
2018-11-01 15:15;132,2
2018-11-01 15:30;134,3
2018-11-01 15:45;137,3
2018-11-01 16:00;131,9
2018-11-01 16:15;127,75
2018-11-01 16:30;127,25
2018-11-01 16:45;127,8
2018-11-01 17:00;122,2
2018-11-01 17:15;122,5
2018-11-01 17:30;126,1
2018-11-01 17:45;130,6
2018-11-01 18:00;131,6
2018-11-01 18:15;131,95
2018-11-01 18:30;129,3
2018-11-01 18:45;132,05
2018-11-01 19:00;131,3
2018-11-01 19:15;132,05
2018-11-01 19:30;129,1
2018-11-01 19:45;125,5
2018-11-01 20:00;116,1
2018-11-01 20:15;104,55
2018-11-01 20:30;108,25
2018-11-01 20:45;103,55
2018-11-01 21:00;101
2018-11-01 21:15;94,85
2018-11-01 21:30;91,7
2018-11-01 21:45;87,6
2018-11-01 22:00;87,55
2018-11-01 22:15;86,65
2018-11-01 22:30;86,7
2018-11-01 22:45;85,45
2018-11-01 23:00;85,6
2018-11-01 23:15;83,05
2018-11-01 23:30;83,75
2018-11-01 23:45;85
2018-11-02 00:00;83,65
2018-11-02 00:15;81,6
2018-11-02 00:30;82,55
2018-11-02 00:45;81,2
2018-11-02 01:00;82,85
2018-11-02 01:15;80,25
2018-11-02 01:30;80,05
2018-11-02 01:45;80,3
2018-11-02 02:00;80,4
2018-11-02 02:15;80,7
2018-11-02 02:30;79,85
2018-11-02 02:45;81,75
2018-11-02 03:00;80,25
2018-11-02 03:15;81,7
2018-11-02 03:30;81,75
2018-11-02 03:45;83,65
2018-11-02 04:00;81
2018-11-02 04:15;81,5
2018-11-02 04:30;79,1
2018-11-02 04:45;81,6
2018-11-02 05:00;87,1
2018-11-02 05:15;86
2018-11-02 05:30;87,1
2018-11-02 05:45;85,65
2018-11-02 06:00;84,85
2018-11-02 06:15;88,15
2018-11-02 06:30;86,2
2018-11-02 06:45;80,65
2018-11-02 07:00;76,55
2018-11-02 07:15;78,75
2018-11-02 07:30;82,65
2018-11-02 07:45;86,55
2018-11-02 08:00;88,8
2018-11-02 08:15;87,45
2018-11-02 08:30;91,2
2018-11-02 08:45;96,85
2018-11-02 09:00;103,1
2018-11-02 09:15;104,45
2018-11-02 09:30;110,75
2018-11-02 09:45;111
2018-11-02 10:00;114,95
2018-11-02 10:15;118,3
2018-11-02 10:30;122,6
2018-11-02 10:45;122,45
2018-11-02 11:00;128,25
2018-11-02 11:15;133,9
2018-11-02 11:30;138,8
2018-11-02 11:45;138,05
2018-11-02 12:00;137,95
2018-11-02 12:15;138,05
2018-11-02 12:30;137
2018-11-02 12:45;136,6
2018-11-02 13:00;140,05
2018-11-02 13:15;140,75
2018-11-02 13:30;140
2018-11-02 13:45;138,5
2018-11-02 14:00;137,45
2018-11-02 14:15;138,95
2018-11-02 14:30;140,2
2018-11-02 14:45;138,95
2018-11-02 15:00;137,15
2018-11-02 15:15;135,1
2018-11-02 15:30;129,75
2018-11-02 15:45;129,1
2018-11-02 16:00;126
2018-11-02 16:15;119,55
2018-11-02 16:30;119,55
2018-11-02 16:45;119,35
2018-11-02 17:00;117,85
2018-11-02 17:15;113,45
2018-11-02 17:30;115,1
2018-11-02 17:45;117,25
2018-11-02 18:00;122,05
2018-11-02 18:15;123,45
2018-11-02 18:30;120,55
2018-11-02 18:45;122,4
2018-11-02 19:00;124,35
2018-11-02 19:15;123,65
2018-11-02 19:30;118,4
2018-11-02 19:45;120,25
2018-11-02 20:00;115,8
2018-11-02 20:15;108,15
2018-11-02 20:30;105,5
2018-11-02 20:45;103,1
2018-11-02 21:00;103,6
2018-11-02 21:15;96,85
2018-11-02 21:30;94,2
2018-11-02 21:45;91,95
2018-11-02 22:00;86,4
2018-11-02 22:15;84,45
2018-11-02 22:30;85,35
2018-11-02 22:45;84,2
2018-11-02 23:00;84,9
2018-11-02 23:15;81,2
2018-11-02 23:30;81,4
2018-11-02 23:45;81,75
2018-11-03 00:00;80,45
2018-11-03 00:15;79,95
2018-11-03 00:30;80,55
2018-11-03 00:45;78,6
2018-11-03 01:00;79,4
2018-11-03 01:15;78,05
2018-11-03 01:30;79,6
2018-11-03 01:45;79,05
2018-11-03 02:00;80,1
2018-11-03 02:15;79,35
2018-11-03 02:30;81,85
2018-11-03 02:45;80,75
2018-11-03 03:00;80,35
2018-11-03 03:15;82,45
2018-11-03 03:30;80,3
2018-11-03 03:45;81,75
2018-11-03 04:00;79,2
2018-11-03 04:15;80,9
2018-11-03 04:30;78,55
2018-11-03 04:45;81,25
2018-11-03 05:00;78,55
2018-11-03 05:15;78,8
2018-11-03 05:30;75,9
2018-11-03 05:45;77,4
2018-11-03 06:00;75,55
2018-11-03 06:15;77
2018-11-03 06:30;74,55
2018-11-03 06:45;73,4
2018-11-03 07:00;72,85
2018-11-03 07:15;73,75
2018-11-03 07:30;75,65
2018-11-03 07:45;76,25
2018-11-03 08:00;78,85
2018-11-03 08:15;81,3
2018-11-03 08:30;82,05
2018-11-03 08:45;80,6
2018-11-03 09:00;77,7
2018-11-03 09:15;72,6
2018-11-03 09:30;72,05
2018-11-03 09:45;73,2
2018-11-03 10:00;73,15
2018-11-03 10:15;73,3
2018-11-03 10:30;72,35
2018-11-03 10:45;73,1
2018-11-03 11:00;73,5
2018-11-03 11:15;75,6
2018-11-03 11:30;75,85
2018-11-03 11:45;75,9
2018-11-03 12:00;75,1
2018-11-03 12:15;73,45
2018-11-03 12:30;74,3
2018-11-03 12:45;74,8
2018-11-03 13:00;76,65
2018-11-03 13:15;74,5
2018-11-03 13:30;72,05
2018-11-03 13:45;74,45
2018-11-03 14:00;75,6
2018-11-03 14:15;76,65
2018-11-03 14:30;75,9
2018-11-03 14:45;78,35
2018-11-03 15:00;78,55
2018-11-03 15:15;75,5
2018-11-03 15:30;80,75
2018-11-03 15:45;75,15
2018-11-03 16:00;78,8
2018-11-03 16:15;75
2018-11-03 16:30;76,5
2018-11-03 16:45;79,1
2018-11-03 17:00;77,5
2018-11-03 17:15;80,2
2018-11-03 17:30;80,1
2018-11-03 17:45;86,75
2018-11-03 18:00;89,35
2018-11-03 18:15;97,3
2018-11-03 18:30;96,6
2018-11-03 18:45;100,9
2018-11-03 19:00;102,2
2018-11-03 19:15;101
2018-11-03 19:30;100,3
2018-11-03 19:45;101,8
2018-11-03 20:00;101,15
2018-11-03 20:15;96,75
2018-11-03 20:30;93,95
2018-11-03 20:45;92,9
2018-11-03 21:00;91,05
2018-11-03 21:15;86,3
2018-11-03 21:30;90,25
2018-11-03 21:45;83,6
2018-11-03 22:00;85,35
2018-11-03 22:15;81,35
2018-11-03 22:30;83,7
2018-11-03 22:45;80,05
2018-11-03 23:00;81,7
2018-11-03 23:15;79
2018-11-03 23:30;81,2
2018-11-03 23:45;81,05
2018-11-04 00:00;80,25
2018-11-04 00:15;78,3
2018-11-04 00:30;80,75
2018-11-04 00:45;78,2
2018-11-04 01:00;80,05
2018-11-04 01:15;78,1
2018-11-04 01:30;79,8
2018-11-04 01:45;78,15
2018-11-04 02:00;79,25
2018-11-04 02:15;78,2
2018-11-04 02:30;79,5
2018-11-04 02:45;78,4
2018-11-04 03:00;79,4
2018-11-04 03:15;79,6
2018-11-04 03:30;81,05
2018-11-04 03:45;83,5
2018-11-04 04:00;79,75
2018-11-04 04:15;79,05
2018-11-04 04:30;77,5
2018-11-04 04:45;78,3
2018-11-04 05:00;77,85
2018-11-04 05:15;74
2018-11-04 05:30;74
2018-11-04 05:45;75,75
2018-11-04 06:00;77
2018-11-04 06:15;77,6
2018-11-04 06:30;77,4
2018-11-04 06:45;77,6
2018-11-04 07:00;77,45
2018-11-04 07:15;76,3
2018-11-04 07:30;74,5
2018-11-04 07:45;76,1
2018-11-04 08:00;70,2
2018-11-04 08:15;69,65
2018-11-04 08:30;74,2
2018-11-04 08:45;72
2018-11-04 09:00;69,75
2018-11-04 09:15;71,45
2018-11-04 09:30;69,2
2018-11-04 09:45;69,15
2018-11-04 10:00;71,4
2018-11-04 10:15;69,4
2018-11-04 10:30;68,8
2018-11-04 10:45;69,75
2018-11-04 11:00;73,05
2018-11-04 11:15;76,8
2018-11-04 11:30;74,55
2018-11-04 11:45;76,25
2018-11-04 12:00;77,5
2018-11-04 12:15;73
2018-11-04 12:30;73,85
2018-11-04 12:45;74,35
2018-11-04 13:00;76,55
2018-11-04 13:15;81,6
2018-11-04 13:30;82,3
2018-11-04 13:45;76
2018-11-04 14:00;76,4
2018-11-04 14:15;83
2018-11-04 14:30;83,1
2018-11-04 14:45;83,65
2018-11-04 15:00;83,2
2018-11-04 15:15;84,35
2018-11-04 15:30;82,5
2018-11-04 15:45;84,15
2018-11-04 16:00;74,7
2018-11-04 16:15;72,2
2018-11-04 16:30;73,15
2018-11-04 16:45;76,2
2018-11-04 17:00;77,6
2018-11-04 17:15;74,75
2018-11-04 17:30;76,4
2018-11-04 17:45;83,4
2018-11-04 18:00;86,7
2018-11-04 18:15;89,2
2018-11-04 18:30;87,2
2018-11-04 18:45;88,55
2018-11-04 19:00;89,55
2018-11-04 19:15;89,45
2018-11-04 19:30;86,8
2018-11-04 19:45;86,15
2018-11-04 20:00;86,3
2018-11-04 20:15;87,6
2018-11-04 20:30;89,15
2018-11-04 20:45;87,35
2018-11-04 21:00;87,75
2018-11-04 21:15;84,45
2018-11-04 21:30;82
2018-11-04 21:45;82,85
2018-11-04 22:00;80,9
2018-11-04 22:15;78,45
2018-11-04 22:30;77,2
2018-11-04 22:45;77,4
2018-11-04 23:00;78,9
2018-11-04 23:15;77,95
2018-11-04 23:30;76,85
2018-11-04 23:45;79,7

